UAE77Q OMDB-OOMS

Flight info

Callsign UAE77Q
Flight time 0h 45m
Altitude 25000
Route ANVIX L223 TARDI N629 MUSUK T511 MCT
Aircraft A359/H-SDE2E3GHIJ3J4J5LM1ORWXY/LB1D1

Departure

Time 2026-04-22 17:22
Airport Dubai International Airport (OMDB)

Arrival

Time 2026-04-22 18:07
Airport Muscat International Airport (OOMS)
Time Latitude Longitude Altitude Speed Heading
2026-04-22 16:42 25.24210 55.37592 27 ft 0 kts 249°
2026-04-22 17:13 25.24211 55.37594 27 ft 2 kts 249°
2026-04-22 17:13 25.24220 55.37621 27 ft 4 kts 249°
2026-04-22 17:13 25.24230 55.37648 27 ft 4 kts 253°
2026-04-22 17:14 25.24229 55.37673 27 ft 4 kts 303°
2026-04-22 17:14 25.24218 55.37693 27 ft 4 kts 303°
2026-04-22 17:14 25.24201 55.37715 27 ft 4 kts 330°
2026-04-22 17:14 25.24180 55.37719 27 ft 3 kts 31°
2026-04-22 17:15 25.24169 55.37711 27 ft 4 kts 31°
2026-04-22 17:15 25.24151 55.37699 27 ft 0 kts 31°
2026-04-22 17:18 25.24217 55.37743 27 ft 15 kts 31°
2026-04-22 17:18 25.24314 55.37810 28 ft 18 kts 32°
2026-04-22 17:19 25.24560 55.37996 30 ft 22 kts 34°
2026-04-22 17:19 25.24637 55.38051 30 ft 0 kts 31°
2026-04-22 17:21 25.24703 55.38094 32 ft 11 kts 30°
2026-04-22 17:21 25.24831 55.37983 31 ft 46 kts 302°
2026-04-22 17:22 25.25676 55.36463 65 ft 175 kts 300°
2026-04-22 17:22 25.26319 55.35321 835 ft 173 kts 301°
2026-04-22 17:22 25.27633 55.33015 1966 ft 190 kts 300°
2026-04-22 17:23 25.28348 55.31703 2210 ft 208 kts 300°
2026-04-22 17:23 25.29139 55.28580 2999 ft 225 kts 256°
2026-04-22 17:23 25.28565 55.26948 3567 ft 230 kts 244°
2026-04-22 17:24 25.27864 55.25351 4216 ft 232 kts 244°
2026-04-22 17:24 25.27163 55.23759 4834 ft 235 kts 244°
2026-04-22 17:24 25.26452 55.22122 5446 ft 238 kts 244°
2026-04-22 17:24 25.25737 55.20465 6048 ft 240 kts 244°
2026-04-22 17:25 25.25004 55.18801 6630 ft 243 kts 241°
2026-04-22 17:25 25.23918 55.17373 7173 ft 246 kts 215°
2026-04-22 17:25 25.22315 55.16711 7621 ft 253 kts 185°
2026-04-22 17:25 25.20530 55.16773 8087 ft 260 kts 172°
2026-04-22 17:26 25.18827 55.17463 8590 ft 265 kts 147°
2026-04-22 17:26 25.17542 55.18926 8923 ft 278 kts 123°
2026-04-22 17:26 25.16571 55.20862 9250 ft 290 kts 117°
2026-04-22 17:26 25.15666 55.22838 9720 ft 295 kts 117°
2026-04-22 17:27 25.14728 55.24862 10241 ft 298 kts 118°
2026-04-22 17:27 25.13770 55.26898 10751 ft 301 kts 118°
2026-04-22 17:27 25.12798 55.28951 11254 ft 303 kts 118°
2026-04-22 17:27 25.11807 55.31022 11747 ft 306 kts 118°
2026-04-22 17:28 25.10804 55.33108 12233 ft 309 kts 118°
2026-04-22 17:28 25.09844 55.35237 12705 ft 312 kts 115°
2026-04-22 17:28 25.08958 55.37433 13164 ft 314 kts 114°
2026-04-22 17:28 25.08070 55.39646 13611 ft 317 kts 114°
2026-04-22 17:29 25.07180 55.41844 14043 ft 319 kts 115°
2026-04-22 17:29 25.06288 55.44114 14336 ft 327 kts 113°
2026-04-22 17:29 25.05396 55.46468 14529 ft 337 kts 113°
2026-04-22 17:29 25.04477 55.48886 14713 ft 347 kts 113°
2026-04-22 17:30 25.03528 55.51368 14888 ft 356 kts 113°
2026-04-22 17:30 25.02551 55.53908 15056 ft 364 kts 113°
2026-04-22 17:30 25.01415 55.56430 15209 ft 371 kts 120°
2026-04-22 17:30 25.00099 55.58917 15359 ft 378 kts 121°
2026-04-22 17:31 24.98739 55.61427 15508 ft 385 kts 121°
2026-04-22 17:31 24.97360 55.63968 15730 ft 388 kts 121°
2026-04-22 17:31 24.95992 55.66493 15982 ft 390 kts 121°
2026-04-22 17:31 24.94591 55.69064 16235 ft 392 kts 122°
2026-04-22 17:32 24.93053 55.71559 16484 ft 394 kts 126°
2026-04-22 17:32 24.91439 55.74006 16729 ft 396 kts 127°
2026-04-22 17:32 24.89809 55.76458 16968 ft 397 kts 127°
2026-04-22 17:32 24.88173 55.78918 17202 ft 399 kts 127°
2026-04-22 17:33 24.87086 55.80555 17354 ft 400 kts 126°
2026-04-22 17:33 24.84883 55.83871 17651 ft 402 kts 126°
2026-04-22 17:33 24.83230 55.86360 17866 ft 404 kts 127°
2026-04-22 17:33 24.81572 55.88815 18074 ft 405 kts 127°
2026-04-22 17:34 24.79880 55.91302 18278 ft 407 kts 127°
2026-04-22 17:34 24.78127 55.93751 18467 ft 408 kts 131°
2026-04-22 17:34 24.76183 55.96030 18661 ft 409 kts 135°
2026-04-22 17:34 24.74129 55.98204 18852 ft 411 kts 137°
2026-04-22 17:35 24.72019 56.00332 19033 ft 412 kts 138°
2026-04-22 17:35 24.69892 56.02449 19214 ft 413 kts 138°
2026-04-22 17:35 24.67762 56.04577 19386 ft 414 kts 138°
2026-04-22 17:35 24.65634 56.06726 19556 ft 416 kts 137°
2026-04-22 17:36 24.63537 56.08862 19719 ft 417 kts 137°
2026-04-22 17:36 24.61414 56.11038 19879 ft 418 kts 137°
2026-04-22 17:36 24.59287 56.13227 20036 ft 419 kts 137°
2026-04-22 17:36 24.57219 56.15489 20185 ft 421 kts 133°
2026-04-22 17:37 24.55244 56.17869 20333 ft 422 kts 132°
2026-04-22 17:37 24.53301 56.20290 20476 ft 423 kts 131°
2026-04-22 17:37 24.51375 56.22735 20617 ft 424 kts 131°
2026-04-22 17:37 24.49451 56.25197 20752 ft 425 kts 131°
2026-04-22 17:38 24.47524 56.27667 20886 ft 426 kts 131°
2026-04-22 17:38 24.45592 56.30139 21015 ft 427 kts 131°
2026-04-22 17:38 24.43678 56.32581 21138 ft 428 kts 131°
2026-04-22 17:38 24.41732 56.35060 21257 ft 429 kts 131°
2026-04-22 17:39 24.39779 56.37543 21374 ft 430 kts 131°
2026-04-22 17:39 24.37823 56.40025 21488 ft 431 kts 131°
2026-04-22 17:39 24.33895 56.45007 21705 ft 433 kts 131°
2026-04-22 17:40 24.31924 56.47505 21810 ft 433 kts 131°
2026-04-22 17:40 24.29948 56.50008 21911 ft 434 kts 131°
2026-04-22 17:40 24.28026 56.52559 22007 ft 435 kts 128°
2026-04-22 17:40 24.26222 56.55227 22105 ft 436 kts 126°
2026-04-22 17:41 24.24495 56.57914 22198 ft 437 kts 125°
2026-04-22 17:41 24.22761 56.60643 22289 ft 437 kts 125°
2026-04-22 17:41 24.21012 56.63374 22377 ft 438 kts 126°
2026-04-22 17:41 24.19243 56.66100 22464 ft 439 kts 126°
2026-04-22 17:42 24.17460 56.68814 22548 ft 439 kts 126°
2026-04-22 17:42 24.15668 56.71519 22630 ft 440 kts 126°
2026-04-22 17:42 24.14471 56.73319 22683 ft 441 kts 126°
2026-04-22 17:42 24.12052 56.76946 22788 ft 441 kts 126°
2026-04-22 17:43 24.10265 56.79623 22863 ft 442 kts 126°
2026-04-22 17:43 24.08451 56.82340 22936 ft 443 kts 126°
2026-04-22 17:43 24.06633 56.85062 23008 ft 443 kts 126°
2026-04-22 17:43 24.04814 56.87787 23079 ft 444 kts 126°
2026-04-22 17:44 24.02995 56.90514 23148 ft 444 kts 126°
2026-04-22 17:44 24.01173 56.93245 23216 ft 445 kts 126°
2026-04-22 17:44 23.99452 56.95816 23278 ft 445 kts 127°
2026-04-22 17:44 23.97620 56.98548 23344 ft 446 kts 127°
2026-04-22 17:45 23.95810 57.01245 23406 ft 446 kts 127°
2026-04-22 17:45 23.93974 57.03981 23468 ft 447 kts 127°
2026-04-22 17:45 23.92131 57.06727 23529 ft 447 kts 127°
2026-04-22 17:45 23.90336 57.09503 23575 ft 448 kts 122°
2026-04-22 17:46 23.88968 57.12559 23636 ft 449 kts 111°
2026-04-22 17:46 23.87916 57.15766 23693 ft 449 kts 109°
2026-04-22 17:46 23.86927 57.19010 23747 ft 450 kts 108°
2026-04-22 17:46 23.85954 57.22250 23885 ft 448 kts 108°
2026-04-22 17:47 23.84993 57.25467 24178 ft 443 kts 108°
2026-04-22 17:47 23.84043 57.28647 24499 ft 437 kts 108°
2026-04-22 17:47 23.83118 57.31746 24816 ft 433 kts 108°
2026-04-22 17:47 23.82426 57.34066 24963 ft 432 kts 108°
2026-04-22 17:48 23.81826 57.36191 24995 ft 435 kts 105°
2026-04-22 17:48 23.81529 57.40543 25005 ft 437 kts 83°
2026-04-22 17:48 23.82083 57.43806 24999 ft 438 kts 77°
2026-04-22 17:48 23.82750 57.47050 24966 ft 438 kts 77°
2026-04-22 17:49 23.83426 57.50353 24781 ft 451 kts 78°
2026-04-22 17:49 23.84097 57.53697 24421 ft 451 kts 78°
2026-04-22 17:49 23.84748 57.56991 23925 ft 448 kts 78°
2026-04-22 17:49 23.85399 57.60303 23316 ft 444 kts 78°
2026-04-22 17:50 23.86041 57.63591 22717 ft 441 kts 78°
2026-04-22 17:50 23.86675 57.66848 22124 ft 437 kts 78°
2026-04-22 17:50 23.87304 57.70089 21528 ft 434 kts 78°
2026-04-22 17:50 23.87697 57.72122 21154 ft 431 kts 78°
2026-04-22 17:51 23.88062 57.75750 20490 ft 426 kts 92°
2026-04-22 17:51 23.87716 57.78948 19903 ft 423 kts 99°
2026-04-22 17:51 23.87214 57.82056 19315 ft 419 kts 101°
2026-04-22 17:51 23.86697 57.85176 18719 ft 416 kts 100°
2026-04-22 17:52 23.86188 57.88276 18126 ft 413 kts 100°
2026-04-22 17:52 23.85687 57.91353 17530 ft 410 kts 100°
2026-04-22 17:52 23.85193 57.94404 16938 ft 406 kts 100°
2026-04-22 17:52 23.84703 57.97434 16349 ft 403 kts 100°
2026-04-22 17:53 23.84219 58.00434 15764 ft 400 kts 100°
2026-04-22 17:53 23.83738 58.03412 15182 ft 396 kts 100°
2026-04-22 17:53 23.83262 58.06363 14600 ft 393 kts 100°
2026-04-22 17:53 23.82789 58.09289 14023 ft 389 kts 100°
2026-04-22 17:54 23.82327 58.12145 13457 ft 386 kts 100°
2026-04-22 17:54 23.81863 58.15009 12887 ft 382 kts 100°
2026-04-22 17:54 23.81401 58.17858 12314 ft 378 kts 100°
2026-04-22 17:54 23.80944 58.20670 11817 ft 373 kts 100°
2026-04-22 17:55 23.80647 58.22501 11529 ft 368 kts 100°
2026-04-22 17:55 23.80060 58.26112 11166 ft 351 kts 100°
2026-04-22 17:55 23.79643 58.28671 11034 ft 334 kts 100°
2026-04-22 17:55 23.79245 58.31111 10901 ft 319 kts 100°
2026-04-22 17:56 23.78864 58.33447 10768 ft 306 kts 100°
2026-04-22 17:56 23.78503 58.35656 10637 ft 294 kts 101°
2026-04-22 17:56 23.78148 58.37828 10401 ft 289 kts 101°
2026-04-22 17:56 23.77796 58.39973 10085 ft 286 kts 101°
2026-04-22 17:57 23.77443 58.42149 9797 ft 296 kts 100°
2026-04-22 17:57 23.77077 58.44378 9518 ft 299 kts 101°
2026-04-22 17:57 23.76710 58.46606 9130 ft 297 kts 101°
2026-04-22 17:57 23.76346 58.48815 8778 ft 295 kts 101°
2026-04-22 17:58 23.75984 58.51014 8447 ft 293 kts 101°
2026-04-22 17:58 23.75624 58.53198 8118 ft 292 kts 101°
2026-04-22 17:58 23.75271 58.55342 7797 ft 290 kts 101°
2026-04-22 17:58 23.74914 58.57503 7471 ft 289 kts 101°
2026-04-22 17:59 23.74551 58.59650 7144 ft 286 kts 102°
2026-04-22 17:59 23.73843 58.61658 6829 ft 284 kts 124°
2026-04-22 17:59 23.72408 58.63087 6612 ft 281 kts 152°
2026-04-22 17:59 23.70546 58.63681 6150 ft 280 kts 173°
2026-04-22 18:00 23.69263 58.63818 5834 ft 280 kts 176°
2026-04-22 18:00 23.66709 58.63846 5293 ft 275 kts 189°
2026-04-22 18:00 23.64966 58.63079 4910 ft 271 kts 218°
2026-04-22 18:00 23.63849 58.61462 4550 ft 269 kts 246°
2026-04-22 18:01 23.63337 58.59510 4179 ft 267 kts 260°
2026-04-22 18:01 23.63124 58.57543 3996 ft 256 kts 265°
2026-04-22 18:01 23.62985 58.55651 3839 ft 245 kts 265°
2026-04-22 18:01 23.62848 58.53856 3784 ft 230 kts 265°
2026-04-22 18:02 23.62718 58.52164 3688 ft 218 kts 264°
2026-04-22 18:02 23.62593 58.50564 3572 ft 206 kts 264°
2026-04-22 18:02 23.62472 58.49062 3451 ft 192 kts 264°
2026-04-22 18:02 23.62357 58.47667 3279 ft 183 kts 264°
2026-04-22 18:03 23.62242 58.46303 3033 ft 179 kts 264°
2026-04-22 18:03 23.62134 58.44968 2782 ft 175 kts 264°
2026-04-22 18:03 23.62030 58.43669 2547 ft 170 kts 264°
2026-04-22 18:03 23.61928 58.42409 2329 ft 164 kts 264°
2026-04-22 18:04 23.61830 58.41200 2111 ft 156 kts 264°
2026-04-22 18:04 23.61738 58.40060 1906 ft 146 kts 264°
2026-04-22 18:04 23.61651 58.38989 1723 ft 139 kts 264°
2026-04-22 18:04 23.61566 58.37936 1544 ft 139 kts 264°
2026-04-22 18:05 23.61483 58.36902 1361 ft 139 kts 264°
2026-04-22 18:05 23.61398 58.35853 1177 ft 138 kts 264°
2026-04-22 18:05 23.61314 58.34808 995 ft 138 kts 264°
2026-04-22 18:05 23.61231 58.33767 806 ft 138 kts 264°
2026-04-22 18:06 23.61148 58.32733 648 ft 137 kts 264°
2026-04-22 18:06 23.61064 58.31691 458 ft 137 kts 264°
2026-04-22 18:06 23.60978 58.30650 275 ft 137 kts 264°
2026-04-22 18:06 23.60897 58.29620 126 ft 137 kts 264°
2026-04-22 18:07 23.60843 58.28941 64 ft 132 kts 264°
2026-04-22 18:07 23.60752 58.27798 50 ft 83 kts 264°
2026-04-22 18:07 23.60720 58.27380 52 ft 39 kts 264°
2026-04-22 18:07 23.60677 58.27112 53 ft 33 kts 245°
2026-04-22 18:08 23.60576 58.26926 52 ft 25 kts 235°
2026-04-22 18:08 23.60517 58.26832 52 ft 12 kts 236°